Find Local Weather

World > North America > United States > California

La Jolla, California Regional Weather

Lat: 32.85N, Lon: 117.27W
Wx Zone: CAZ043
Feedback
Expires:201808141100;;042633
ASUS46 KSGX 141011
RWRSGX

SAN DIEGO HOURLY WEATHER ROUNDUP
NATIONAL WEATHER SERVICE SAN DIEGO CA
300 AM PDT TUE AUG 14 2018

NOTE: "FAIR" INDICATES FEW OR NO CLOUDS BELOW 12,000 FEET WITH NO 
SIGNIFICANT WEATHER AND/OR OBSTRUCTIONS TO VISIBILITY.


CAZ042-043-060-061-PZZ750-775-141100-

GREATER SAN DIEGO AREA
  
CITY           SKY/WX    TMP DP  RH WIND       PRES   REMARKS
SAN DIEGO AP   PTCLDY    73  65  75 N3        29.92F                  
CHULA VISTA      N/A     71  67  86 CALM      29.82F                  
IMPERIAL BEACH MOCLDY    70  64  81 CALM      29.91F                  
MIRAMAR MCAS   CLEAR     68  60  75 SE3       29.91F                  
MONTGOMERY FLD CLEAR     70  64  81 CALM      29.92F                  
GILLESPIE FLD  MOCLDY    70  63  78 NW5       29.91F                  

$$

NORTH SAN DIEGO COUNTY
  
CITY           SKY/WX    TMP DP  RH WIND       PRES   REMARKS
CAMP PENDLETON MOCLDY    64  62  93 CALM      29.90F                  
OCEANSIDE AP   CLEAR     67  62  84 CALM      29.90F                  
OCEANSIDE HBR    N/A     69  65  87 CALM      29.92F                  
VISTA            N/A     68  63  83 CALM      29.88F                  
CARLSBAD       CLEAR     70  65  84 CALM      29.90F                  
DEL MAR          N/A     69  65  88 CALM      29.91F                  
LA JOLLA SCRIP   N/A     69  66  88 CALM      29.89F                  
ESCONDIDO        N/A     69  64  85 SW1       29.90F                  
SAN MARCOS       N/A     67  63  87 CALM      29.94F                  
POWAY            N/A     66  60  81 CALM      29.89F                  

$$

EAST SAN DIEGO COUNTY
  
CITY           SKY/WX    TMP DP  RH WIND       PRES   REMARKS
RAMONA         CLEAR     64  57  78 CALM      29.94F                  
LA MESA          N/A     68  63  85 CALM      29.85F                  
JAMUL            N/A     67  64  88 CALM      29.89F                  
CAMPO            N/A     60  53  77 NE5       29.95F                  

$$

ORANGE COUNTY AND THE LOS ANGELES BASIN
  
CITY           SKY/WX    TMP DP  RH WIND       PRES   REMARKS
JOHN WAYNE AP  CLEAR     70  63  78 CALM      29.90F                  
LAKE FOREST FR   N/A     65  54  68 CALM      29.77F                  
HUNTINGTON BCH   N/A     65  62  90 CALM      29.91F                  
LOS ALAMITOS   FAIR      67  64  90 CALM      29.90F                  
FULLERTON      CLEAR     70  63  78 CALM      29.89F                  
LONG BEACH     CLEAR     70  64  81 CALM      29.90F                  
L.A. AP        MOCLDY    69  63  81 CALM      29.91F                  
L.A. DOWNTOWN  CLEAR     69  63  81 CALM      29.90F                  

$$

THE INLAND EMPIRE
  
CITY           SKY/WX    TMP DP  RH WIND       PRES   REMARKS
CORONA         CLEAR     65  59  81 CALM      29.92F                  
CHINO          CLEAR     67  61  81 CALM      29.93F                  
ONTARIO        CLEAR     69  58  67 SW5       29.92F                  
SAN BERNARDINO FAIR      69  55  60 W3        29.93F                  
RIVERSIDE AP   CLEAR     68  57  68 CALM      29.92F                  
MORENO VALLEY    N/A     67  55  65 CALM      28.04F                  
MARCH ARB      CLEAR     65  53  65 CALM      29.94F                  
HORSETHIEF CYN   N/A     66  51  58 CALM      29.89F                  
PERRIS           N/A     67  57  69 SE3         N/A                   
HEMET EAST       N/A     67  49  52 CALM      29.82F                  
FRENCH VALLEY  FAIR      66  59  77 CALM      29.94F                  
TEMECULA         N/A     66  62  87 CALM      29.98F                  

$$

SAN BERNARDINO AND RIVERSIDE COUNTY MOUNTAINS
  
CITY           SKY/WX    TMP DP  RH WIND       PRES   REMARKS
BIG BEAR AP    CLEAR     48  41  76 CALM      30.22F                  
ANGELUS OAKS     N/A     61  49  65 CALM      29.74F                  

$$

SOUTHERN DESERT INCLUDING THE COACHELLA VALLEY
  
CITY           SKY/WX    TMP DP  RH WIND       PRES   REMARKS
PALM SPRINGS   CLEAR     85  52  32 SE3       29.79S                  
THOUSAND PALMS   N/A     85  52  32 NW17      29.72F                  
PALM DESERT      N/A     83  55  37 CALM        N/A                   
THERMAL        CLEAR     88  52  29 NW6       29.73S                  
BLYTHE           N/A    N/A N/A N/A MISG      29.75F                  
IMPERIAL AP    CLEAR     85  78  80 CALM      29.73S HX  96           
EL CENTRO NAS  CLEAR     84  64  50 MISG      29.75S                  
YUMA AZ        CLEAR     83  74  74 S9        29.75F                  

$$

UPPER DESERT
  
CITY           SKY/WX    TMP DP  RH WIND       PRES   REMARKS
HESPERIA         N/A     69  47  45 W3        29.80F                  
APPLE VALLEY     N/A     62  52  69 CALM      29.83F                  
PALMDALE       CLEAR     72  40  31 S8        29.94F                  
LANCASTER      CLEAR     74  32  21 SW5       29.93S                  
EDWARDS AFB    CLEAR     72  40  31 SW14      29.89F                  
DAGGETT        CLEAR     79  47  32 W12       29.87F                  
29 PALMS N     CLEAR     83  46  27 NW6       29.93F                  
NEEDLES        CLEAR     96  61  31 S3        29.75F HX  96           

$$

REGIONAL REPORTS
  
CITY           SKY/WX    TMP DP  RH WIND       PRES   REMARKS
SANTA BARBARA  CLOUDY    67  63  87 SE3       29.89F                  
SANDBERG       PTCLDY    70  39  32 NW14      30.08F                  
LAS VEGAS NV   PTCLDY    89  50  26 S3        29.81F                  
PHOENIX AZ     CLEAR     90  67  46 W13       29.79S                  
TIJUANA        CLOUDY    70  64  83 CALM      29.94F                  
ENSENADA NW      N/A     71  32  23 CALM      29.84F                  

$$

OFFSHORE ISLANDS
  
CITY           SKY/WX    TMP DP  RH WIND       PRES   REMARKS
CATALINA ARPT  CLEAR     66  52  60 S3        29.95F                  
SAN CLEMENTE I CLEAR     66  63  90 W7        29.93F                  
SAN NICOLAS IS MOCLDY    62  32  32 W7        29.91F                  

$$

MARINE AND OFFSHORE BUOY REPORTS
  
STATION/POSITION SKY/WX   TEMP    WIND        PRES    VSBY  SWELL
                          AIR SEA DIR/SP/G                  HT/PER/DIR
                          (F)     (DEG/KT/KT) (MB)    (MI)  (FT/S/D)
TANNER BANKS               63 70              1013.3F
S CLEMENTE BASIN           70 76  270/  6/  8 1012.8F         3/190/14
SAN NICOLAS IS.               69                N/A           3/190/14
SO. S. ROSA ISLA           61 64  310/ 12/ 16 1012.8F         5/290/ 9
W. S. BARBARA CH              71  320/ 16/ 19 1011.8
M. S. BARBARA CH           66 72  230/  8/ 10 1012.5
S. MONICA BASIN            67 72  330/  2/  4 1012.3F
S PEDRO CHANNEL               74                N/A           2/180/15
CMP PENDLETON NS              75                N/A           2/220/15
OCEANSIDE OFFSHR              76                N/A           2/200/15
TORREY PINES OTR              74                N/A           2/210/15
SAN DIEGO BAY                                 1012.5F
POINT LOMA SOUTH              74                N/A           3/200/14

$$

  

SKY/WX - Weather  TMP - Temperature  DP - Dewpoint  RH - Relative Humidity
WIND - Wind Direction/Speed PRES - Barometric Pressure